Time,TemperatureF,DewpointF,PressureIn,WindDirection,WindDirectionDegrees,WindSpeedMPH,WindSpeedGustMPH,Humidity,HourlyPrecipIn,Conditions,Clouds,dailyrainin,SoftwareType,DateUTC
2013-05-26 00:04:00,58.5,31.9,30.17,North,360,0.0,0.0,36,0.00,,CLR,0.00,VWS V14.01,2013-05-26 04:04:00,
2013-05-26 00:09:00,58.5,31.9,30.17,North,360,0.0,0.0,36,0.00,,CLR,0.00,VWS V14.01,2013-05-26 04:09:00,
2013-05-26 00:14:00,58.5,31.9,30.17,North,360,0.0,0.0,36,0.00,,CLR,0.00,VWS V14.01,2013-05-26 04:14:00,
2013-05-26 00:19:00,58.4,31.9,30.17,North,360,0.0,0.0,36,0.00,,CLR,0.00,VWS V14.01,2013-05-26 04:19:00,
2013-05-26 00:24:00,58.4,31.9,30.17,North,360,0.0,0.0,36,0.00,,CLR,0.00,VWS V14.01,2013-05-26 04:24:00,
2013-05-26 00:29:00,58.3,32.5,30.18,North,360,0.0,0.0,37,0.00,,CLR,0.00,VWS V14.01,2013-05-26 04:29:00,
2013-05-26 00:34:00,58.2,31.7,30.18,North,360,0.0,0.0,36,0.00,,CLR,0.00,VWS V14.01,2013-05-26 04:34:00,
2013-05-26 00:39:00,58.1,32.3,30.18,North,360,0.0,0.0,37,0.00,,CLR,0.00,VWS V14.01,2013-05-26 04:39:00,
2013-05-26 00:44:00,57.9,32.1,30.18,North,360,0.0,0.0,37,0.00,,CLR,0.00,VWS V14.01,2013-05-26 04:44:00,
2013-05-26 00:49:00,57.7,31.9,30.18,North,360,0.0,0.0,37,0.00,,CLR,0.00,VWS V14.01,2013-05-26 04:49:00,
2013-05-26 00:54:00,57.6,32.5,30.18,North,360,0.0,0.0,39,0.00,,CLR,0.00,VWS V14.01,2013-05-26 04:54:00,
2013-05-26 00:59:00,57.5,32.5,30.18,North,360,0.0,0.0,39,0.00,,CLR,0.00,VWS V14.01,2013-05-26 04:59:00,
2013-05-26 01:04:00,57.4,32.4,30.18,North,360,0.0,0.0,39,0.00,,CLR,0.00,VWS V14.01,2013-05-26 05:04:00,
2013-05-26 01:09:00,57.2,32.8,30.18,North,360,0.0,0.0,40,0.00,,CLR,0.00,VWS V14.01,2013-05-26 05:09:00,
2013-05-26 01:14:00,57.2,32.2,30.18,North,360,0.0,0.0,39,0.00,,CLR,0.00,VWS V14.01,2013-05-26 05:14:00,
2013-05-26 01:19:00,57.1,32.8,30.18,North,360,0.0,0.0,40,0.00,,CLR,0.00,VWS V14.01,2013-05-26 05:19:00,
2013-05-26 01:24:00,57.0,32.7,30.18,North,360,0.0,0.0,40,0.00,,CLR,0.00,VWS V14.01,2013-05-26 05:24:00,
2013-05-26 01:29:00,56.8,32.5,30.18,North,360,0.0,0.0,40,0.00,,CLR,0.00,VWS V14.01,2013-05-26 05:29:00,
2013-05-26 01:39:00,56.5,32.9,30.18,North,360,0.0,0.0,41,0.00,,CLR,0.00,VWS V14.01,2013-05-26 05:39:00,
2013-05-26 01:44:00,56.4,33.4,30.18,North,360,0.0,0.0,42,0.00,,CLR,0.00,VWS V14.01,2013-05-26 05:44:00,
2013-05-26 01:49:00,56.4,32.8,30.18,North,360,0.0,0.0,41,0.00,,CLR,0.00,VWS V14.01,2013-05-26 05:49:00,
2013-05-26 01:54:00,56.3,32.7,30.18,North,360,0.0,0.0,41,0.00,,CLR,0.00,VWS V14.01,2013-05-26 05:54:00,
2013-05-26 01:59:00,56.3,33.3,30.17,North,360,0.0,0.0,42,0.00,,CLR,0.00,VWS V14.01,2013-05-26 05:59:00,
2013-05-26 02:04:00,56.1,33.2,30.17,North,360,0.0,0.0,42,0.00,,CLR,0.00,VWS V14.01,2013-05-26 06:04:00,
2013-05-26 02:09:00,56.0,33.1,30.17,North,360,0.0,0.0,42,0.00,,CLR,0.00,VWS V14.01,2013-05-26 06:09:00,
2013-05-26 02:14:00,56.1,33.2,30.17,North,360,0.0,0.0,42,0.00,,CLR,0.00,VWS V14.01,2013-05-26 06:14:00,
2013-05-26 02:19:00,55.9,33.0,30.17,North,360,0.0,0.0,42,0.00,,CLR,0.00,VWS V14.01,2013-05-26 06:19:00,
2013-05-26 02:24:00,55.8,32.9,30.17,North,360,0.0,0.0,42,0.00,,CLR,0.00,VWS V14.01,2013-05-26 06:24:00,
2013-05-26 02:34:00,55.7,33.4,30.17,North,360,0.0,0.0,43,0.00,,CLR,0.00,VWS V14.01,2013-05-26 06:34:00,
2013-05-26 02:39:00,55.6,33.3,30.17,North,360,0.0,0.0,43,0.00,,CLR,0.00,VWS V14.01,2013-05-26 06:39:00,
2013-05-26 02:49:00,55.3,33.7,30.17,North,360,0.0,0.0,44,0.00,,CLR,0.00,VWS V14.01,2013-05-26 06:49:00,
2013-05-26 02:54:00,55.1,33.5,30.17,North,360,0.0,0.0,44,0.00,,CLR,0.00,VWS V14.01,2013-05-26 06:54:00,
2013-05-26 02:59:00,55.0,33.4,30.17,North,360,0.0,0.0,44,0.00,,FEW150,0.00,VWS V14.01,2013-05-26 06:59:00,
2013-05-26 03:07:00,54.9,33.9,30.17,North,360,0.0,0.0,45,0.00,,FEW150,0.00,VWS V14.01,2013-05-26 07:07:00,
2013-05-26 03:14:00,54.6,34.2,30.17,North,360,0.0,0.0,46,0.00,,FEW150,0.00,VWS V14.01,2013-05-26 07:14:00,
2013-05-26 03:19:00,54.5,34.1,30.17,North,360,0.0,0.0,46,0.00,,FEW150,0.00,VWS V14.01,2013-05-26 07:19:00,
2013-05-26 03:24:00,54.6,34.2,30.17,North,360,0.0,0.0,46,0.00,,FEW150,0.00,VWS V14.01,2013-05-26 07:24:00,
2013-05-26 03:34:00,54.4,34.0,30.17,North,360,0.0,0.0,46,0.00,,FEW150,0.00,VWS V14.01,2013-05-26 07:34:00,
2013-05-26 03:39:00,54.3,34.0,30.17,North,360,0.0,0.0,46,0.00,,FEW150,0.00,VWS V14.01,2013-05-26 07:39:00,
2013-05-26 03:44:00,54.3,34.0,30.17,North,360,0.0,0.0,46,0.00,,FEW150,0.00,VWS V14.01,2013-05-26 07:44:00,
2013-05-26 03:49:00,54.2,34.4,30.17,North,360,0.0,0.0,47,0.00,,FEW150,0.00,VWS V14.01,2013-05-26 07:49:00,
2013-05-26 03:54:00,54.1,34.3,30.17,North,360,0.0,0.0,47,0.00,,FEW150,0.00,VWS V14.01,2013-05-26 07:54:00,
2013-05-26 03:59:00,54.0,34.2,30.18,North,360,0.0,0.0,47,0.00,,FEW150,0.00,VWS V14.01,2013-05-26 07:59:00,
2013-05-26 04:04:00,53.8,34.1,30.18,North,360,0.0,0.0,47,0.00,,FEW150,0.00,VWS V14.01,2013-05-26 08:04:00,
2013-05-26 04:09:00,53.7,34.5,30.18,North,360,0.0,0.0,48,0.00,,FEW150,0.00,VWS V14.01,2013-05-26 08:09:00,
2013-05-26 04:19:00,53.2,34.6,30.18,North,360,0.0,0.0,49,0.00,,FEW150,0.00,VWS V14.01,2013-05-26 08:19:00,
2013-05-26 04:25:00,52.9,35.4,30.18,North,360,0.0,0.0,51,0.00,,FEW150,0.00,VWS V14.01,2013-05-26 08:25:00,
2013-05-26 04:34:00,52.4,36.0,30.18,North,360,0.0,0.0,53,0.00,,FEW150,0.00,VWS V14.01,2013-05-26 08:34:00,
2013-05-26 04:39:00,52.1,35.7,30.19,North,360,0.0,0.0,53,0.00,,FEW150,0.00,VWS V14.01,2013-05-26 08:39:00,
2013-05-26 04:44:00,51.9,35.5,30.19,North,360,0.0,0.0,53,0.00,,FEW150,0.00,VWS V14.01,2013-05-26 08:44:00,
2013-05-26 04:49:00,51.7,35.8,30.19,North,360,0.0,0.0,54,0.00,,FEW150,0.00,VWS V14.01,2013-05-26 08:49:00,
2013-05-26 04:54:00,51.6,35.2,30.19,North,360,0.0,0.0,53,0.00,,FEW150,0.00,VWS V14.01,2013-05-26 08:54:00,
2013-05-26 04:59:00,51.6,35.2,30.19,North,360,0.0,0.0,53,0.00,,FEW150,0.00,VWS V14.01,2013-05-26 08:59:00,
2013-05-26 05:04:00,51.6,35.2,30.19,North,360,0.0,0.0,53,0.00,,FEW150,0.00,VWS V14.01,2013-05-26 09:04:00,
2013-05-26 05:09:00,51.7,35.3,30.19,North,360,0.0,0.0,53,0.00,,FEW150,0.00,VWS V14.01,2013-05-26 09:09:00,
2013-05-26 05:14:00,51.7,35.3,30.19,North,360,0.0,0.0,53,0.00,,FEW150,0.00,VWS V14.01,2013-05-26 09:14:00,
2013-05-26 05:19:00,51.9,35.0,30.19,North,360,0.0,0.0,52,0.00,,FEW150,0.00,VWS V14.01,2013-05-26 09:19:00,
2013-05-26 05:24:00,52.0,35.6,30.19,North,360,0.0,0.0,53,0.00,,FEW150,0.00,VWS V14.01,2013-05-26 09:24:00,
2013-05-26 05:29:00,52.0,35.1,30.19,North,360,0.0,0.0,52,0.00,,FEW150,0.00,VWS V14.01,2013-05-26 09:29:00,
2013-05-26 05:34:00,52.2,34.8,30.19,North,360,0.0,0.0,51,0.00,,FEW150,0.00,VWS V14.01,2013-05-26 09:34:00,
2013-05-26 05:39:00,52.2,34.8,30.19,North,360,0.0,0.0,51,0.00,,FEW150,0.00,VWS V14.01,2013-05-26 09:39:00,
2013-05-26 05:44:00,52.3,34.8,30.19,North,360,0.0,0.0,51,0.00,,FEW150,0.00,VWS V14.01,2013-05-26 09:44:00,
2013-05-26 05:49:00,52.3,34.8,30.19,North,360,0.0,0.0,51,0.00,,FEW150,0.00,VWS V14.01,2013-05-26 09:49:00,
2013-05-26 05:54:00,52.3,34.8,30.19,North,360,0.0,0.0,51,0.00,,FEW150,0.00,VWS V14.01,2013-05-26 09:54:00,
2013-05-26 05:59:00,52.4,34.9,30.19,North,360,0.0,0.0,51,0.00,,SCT150,0.00,VWS V14.01,2013-05-26 09:59:00,
2013-05-26 06:04:00,52.4,34.4,30.20,North,360,0.0,0.0,50,0.00,,SCT150,0.00,VWS V14.01,2013-05-26 10:04:00,
2013-05-26 06:09:00,52.4,34.4,30.20,North,360,0.0,0.0,50,0.00,,SCT150,0.00,VWS V14.01,2013-05-26 10:09:00,
2013-05-26 06:14:00,52.4,34.9,30.20,North,360,0.0,0.0,51,0.00,,SCT150,0.00,VWS V14.01,2013-05-26 10:14:00,
2013-05-26 06:19:00,52.5,34.5,30.20,North,360,0.0,0.0,50,0.00,,SCT150,0.00,VWS V14.01,2013-05-26 10:19:00,
2013-05-26 06:24:00,52.6,35.1,30.20,North,360,0.0,0.0,51,0.00,,SCT150,0.00,VWS V14.01,2013-05-26 10:24:00,
2013-05-26 06:29:00,52.7,34.7,30.20,North,360,0.0,0.0,50,0.00,,SCT150,0.00,VWS V14.01,2013-05-26 10:29:00,
2013-05-26 06:39:00,53.0,35.0,30.21,North,360,0.0,0.0,50,0.00,,SCT150,0.00,VWS V14.01,2013-05-26 10:39:00,
2013-05-26 06:44:00,53.0,34.4,30.21,North,360,0.0,0.0,49,0.00,,SCT150,0.00,VWS V14.01,2013-05-26 10:44:00,
2013-05-26 06:49:00,53.1,35.6,30.21,North,360,0.0,0.0,51,0.00,,SCT150,0.00,VWS V14.01,2013-05-26 10:49:00,
2013-05-26 06:54:00,53.3,34.7,30.21,North,360,0.0,0.0,49,0.00,,SCT150,0.00,VWS V14.01,2013-05-26 10:54:00,
2013-05-26 06:59:00,53.4,35.3,30.22,North,360,0.0,0.0,50,0.00,,BKN200,0.00,VWS V14.01,2013-05-26 10:59:00,
2013-05-26 07:04:00,53.5,34.9,30.22,North,360,0.0,0.0,49,0.00,,BKN200,0.00,VWS V14.01,2013-05-26 11:04:00,
2013-05-26 07:09:00,53.6,35.5,30.21,North,360,0.0,0.0,50,0.00,,BKN200,0.00,VWS V14.01,2013-05-26 11:09:00,
2013-05-26 07:14:00,53.7,35.1,30.22,North,360,0.0,0.0,49,0.00,,BKN200,0.00,VWS V14.01,2013-05-26 11:14:00,
2013-05-26 07:19:00,53.9,35.3,30.22,North,360,0.0,0.0,49,0.00,,BKN200,0.00,VWS V14.01,2013-05-26 11:19:00,
2013-05-26 07:24:00,54.1,35.4,30.21,North,360,0.0,0.0,49,0.00,,BKN200,0.00,VWS V14.01,2013-05-26 11:24:00,
2013-05-26 07:29:00,54.3,35.1,30.21,North,360,0.0,0.0,48,0.00,,BKN200,0.00,VWS V14.01,2013-05-26 11:29:00,
2013-05-26 07:34:00,54.5,34.7,30.22,North,360,0.0,0.0,47,0.00,,BKN200,0.00,VWS V14.01,2013-05-26 11:34:00,
2013-05-26 07:39:00,54.7,36.0,30.21,North,360,0.0,0.0,49,0.00,,BKN200,0.00,VWS V14.01,2013-05-26 11:39:00,
2013-05-26 07:49:00,55.1,34.7,30.22,North,360,0.0,0.0,46,0.00,,BKN200,0.00,VWS V14.01,2013-05-26 11:49:00,
2013-05-26 07:54:00,55.3,34.3,30.22,North,360,0.0,0.0,45,0.00,,BKN200,0.00,VWS V14.01,2013-05-26 11:54:00,
2013-05-26 07:59:00,55.4,34.4,30.22,North,360,0.0,0.0,45,0.00,,BKN250,0.00,VWS V14.01,2013-05-26 11:59:00,
2013-05-26 08:07:00,55.5,34.5,30.22,North,360,0.0,0.0,45,0.00,,BKN250,0.00,VWS V14.01,2013-05-26 12:07:00,
2013-05-26 08:14:00,56.0,34.9,30.22,North,360,0.0,0.0,45,0.00,,BKN250,0.00,VWS V14.01,2013-05-26 12:14:00,
2013-05-26 08:19:00,56.1,35.0,30.23,North,360,0.0,0.0,45,0.00,,BKN250,0.00,VWS V14.01,2013-05-26 12:19:00,
2013-05-26 08:24:00,56.3,35.2,30.23,North,360,0.0,0.0,45,0.00,,BKN250,0.00,VWS V14.01,2013-05-26 12:24:00,
2013-05-26 08:29:00,56.5,34.8,30.23,North,360,0.0,0.0,44,0.00,,BKN250,0.00,VWS V14.01,2013-05-26 12:29:00,
2013-05-26 08:34:00,56.6,35.5,30.23,North,360,0.0,0.0,45,0.00,,BKN250,0.00,VWS V14.01,2013-05-26 12:34:00,
2013-05-26 08:39:00,56.9,35.1,30.23,North,360,0.0,0.0,44,0.00,,BKN250,0.00,VWS V14.01,2013-05-26 12:39:00,
2013-05-26 08:44:00,57.2,34.8,30.23,North,360,0.0,0.0,43,0.00,,BKN250,0.00,VWS V14.01,2013-05-26 12:44:00,
2013-05-26 08:54:00,57.3,34.9,30.23,North,360,0.0,0.0,43,0.00,,BKN250,0.00,VWS V14.01,2013-05-26 12:54:00,
2013-05-26 08:59:00,57.4,35.6,30.23,North,360,0.0,0.0,44,0.00,,SCT250,0.00,VWS V14.01,2013-05-26 12:59:00,
2013-05-26 09:04:00,57.8,36.0,30.23,North,360,0.0,0.0,44,0.00,,SCT250,0.00,VWS V14.01,2013-05-26 13:04:00,
2013-05-26 09:14:00,58.3,35.2,30.23,North,360,0.0,0.0,42,0.00,,SCT250,0.00,VWS V14.01,2013-05-26 13:14:00,
2013-05-26 09:19:00,58.5,34.7,30.23,North,360,0.0,0.0,41,0.00,,SCT250,0.00,VWS V14.01,2013-05-26 13:19:00,
2013-05-26 09:24:00,58.6,34.1,30.23,North,360,0.0,0.0,40,0.00,,SCT250,0.00,VWS V14.01,2013-05-26 13:24:00,
2013-05-26 09:29:00,58.8,34.3,30.23,North,360,0.0,0.0,40,0.00,,SCT250,0.00,VWS V14.01,2013-05-26 13:29:00,
2013-05-26 09:34:00,58.8,33.6,30.23,North,360,0.0,0.0,39,0.00,,SCT250,0.00,VWS V14.01,2013-05-26 13:34:00,
2013-05-26 09:39:00,59.3,35.4,30.23,North,360,0.0,0.0,41,0.00,,SCT250,0.00,VWS V14.01,2013-05-26 13:39:00,
2013-05-26 09:44:00,59.5,36.2,30.23,North,360,0.0,0.0,42,0.00,,SCT250,0.00,VWS V14.01,2013-05-26 13:44:00,
2013-05-26 09:49:00,59.8,35.8,30.23,North,360,0.0,0.0,41,0.00,,SCT250,0.00,VWS V14.01,2013-05-26 13:49:00,
2013-05-26 09:54:00,59.9,33.9,30.23,North,360,0.0,0.0,37,0.00,,SCT250,0.00,VWS V14.01,2013-05-26 13:54:00,
2013-05-26 09:59:00,60.2,34.9,30.23,North,360,0.0,0.0,39,0.00,,FEW250,0.00,VWS V14.01,2013-05-26 13:59:00,
2013-05-26 10:04:00,60.2,33.4,30.23,North,360,0.0,0.0,36,0.00,,FEW250,0.00,VWS V14.01,2013-05-26 14:04:00,
2013-05-26 10:14:00,60.7,33.9,30.23,North,360,0.0,0.0,36,0.00,,FEW250,0.00,VWS V14.01,2013-05-26 14:14:00,
2013-05-26 10:19:00,60.4,32.9,30.23,North,360,0.0,0.0,35,0.00,,FEW250,0.00,VWS V14.01,2013-05-26 14:19:00,
2013-05-26 10:24:00,61.0,34.2,30.23,North,360,0.0,0.0,36,0.00,,FEW250,0.00,VWS V14.01,2013-05-26 14:24:00,
2013-05-26 10:29:00,61.3,32.1,30.23,North,360,0.0,0.0,33,0.00,,FEW250,0.00,VWS V14.01,2013-05-26 14:29:00,
2013-05-26 10:34:00,61.8,33.4,30.23,North,360,0.0,0.0,34,0.00,,FEW250,0.00,VWS V14.01,2013-05-26 14:34:00,
2013-05-26 10:39:00,61.6,33.2,30.23,North,360,0.0,0.0,34,0.00,,FEW250,0.00,VWS V14.01,2013-05-26 14:39:00,
2013-05-26 10:44:00,61.7,31.7,30.23,North,360,0.0,0.0,32,0.00,,FEW250,0.00,VWS V14.01,2013-05-26 14:44:00,
2013-05-26 10:49:00,61.5,31.5,30.23,North,360,0.0,0.0,32,0.00,,FEW250,0.00,VWS V14.01,2013-05-26 14:49:00,
2013-05-26 10:54:00,62.0,33.5,30.23,North,360,0.0,0.0,34,0.00,,FEW250,0.00,VWS V14.01,2013-05-26 14:54:00,
2013-05-26 10:59:00,62.1,31.2,30.23,North,360,0.0,0.0,31,0.00,,FEW250,0.00,VWS V14.01,2013-05-26 14:59:00,
2013-05-26 11:07:00,61.6,29.9,30.22,North,360,0.0,0.0,30,0.00,,FEW250,0.00,VWS V14.01,2013-05-26 15:07:00,
2013-05-26 11:14:00,61.8,30.1,30.22,North,360,0.0,0.0,30,0.00,,FEW250,0.00,VWS V14.01,2013-05-26 15:14:00,
2013-05-26 11:19:00,62.2,29.6,30.22,North,360,0.0,0.0,29,0.00,,FEW250,0.00,VWS V14.01,2013-05-26 15:19:00,
2013-05-26 11:29:00,62.4,30.6,30.22,North,360,0.0,0.0,30,0.00,,FEW250,0.00,VWS V14.01,2013-05-26 15:29:00,
2013-05-26 11:34:00,62.8,30.1,30.22,North,360,0.0,0.0,29,0.00,,FEW250,0.00,VWS V14.01,2013-05-26 15:34:00,
2013-05-26 11:39:00,62.7,30.9,30.21,North,360,0.0,0.0,30,0.00,,FEW250,0.00,VWS V14.01,2013-05-26 15:39:00,
2013-05-26 11:44:00,63.2,30.4,30.21,North,360,0.0,0.0,29,0.00,,FEW250,0.00,VWS V14.01,2013-05-26 15:44:00,
2013-05-26 11:49:00,63.5,31.6,30.21,North,360,0.0,0.0,30,0.00,,FEW250,0.00,VWS V14.01,2013-05-26 15:49:00,
2013-05-26 11:59:00,64.0,32.9,30.21,North,360,0.0,0.0,31,0.00,,FEW250,0.00,VWS V14.01,2013-05-26 15:59:00,
2013-05-26 12:04:00,64.1,32.1,30.21,North,360,0.0,0.0,30,0.00,,FEW250,0.00,VWS V14.01,2013-05-26 16:04:00,
2013-05-26 12:14:00,64.4,29.6,30.21,North,360,0.0,0.0,27,0.00,,FEW250,0.00,VWS V14.01,2013-05-26 16:14:00,
2013-05-26 12:19:00,64.5,28.7,30.21,North,360,0.0,0.0,26,0.00,,FEW250,0.00,VWS V14.01,2013-05-26 16:19:00,
2013-05-26 12:24:00,64.5,28.7,30.21,North,360,0.0,0.0,26,0.00,,FEW250,0.00,VWS V14.01,2013-05-26 16:24:00,
2013-05-26 12:34:00,65.1,30.2,30.21,North,360,0.0,0.0,27,0.00,,FEW250,0.00,VWS V14.01,2013-05-26 16:34:00,
2013-05-26 12:39:00,65.2,30.3,30.20,North,360,0.0,0.0,27,0.00,,FEW250,0.00,VWS V14.01,2013-05-26 16:39:00,
2013-05-26 12:44:00,65.0,32.0,30.20,North,360,0.0,0.0,29,0.00,,FEW250,0.00,VWS V14.01,2013-05-26 16:44:00,
2013-05-26 12:54:00,65.8,32.7,30.20,North,360,0.0,0.0,29,0.00,,FEW250,0.00,VWS V14.01,2013-05-26 16:54:00,
2013-05-26 12:59:00,65.8,31.8,30.20,North,360,0.0,0.0,28,0.00,,FEW250,0.00,VWS V14.01,2013-05-26 16:59:00,
2013-05-26 13:04:00,65.9,31.8,30.20,North,360,0.0,0.0,28,0.00,,FEW250,0.00,VWS V14.01,2013-05-26 17:04:00,
2013-05-26 13:14:00,66.8,33.5,30.19,North,360,0.0,0.0,29,0.00,,FEW250,0.00,VWS V14.01,2013-05-26 17:14:00,
2013-05-26 13:19:00,66.8,34.4,30.18,North,360,0.0,0.0,30,0.00,,FEW250,0.00,VWS V14.01,2013-05-26 17:19:00,
2013-05-26 13:26:00,67.6,32.3,30.18,North,360,0.0,0.0,27,0.00,,FEW250,0.00,VWS V14.01,2013-05-26 17:26:00,
2013-05-26 13:34:00,67.4,30.1,30.18,North,360,0.0,0.0,25,0.00,,FEW250,0.00,VWS V14.01,2013-05-26 17:34:00,
2013-05-26 13:39:00,67.8,34.4,30.17,North,360,0.0,0.0,29,0.00,,FEW250,0.00,VWS V14.01,2013-05-26 17:39:00,
2013-05-26 13:44:00,67.7,33.4,30.17,North,360,0.0,0.0,28,0.00,,FEW250,0.00,VWS V14.01,2013-05-26 17:44:00,
2013-05-26 13:54:00,67.8,34.4,30.17,North,360,0.0,0.0,29,0.00,,FEW250,0.00,VWS V14.01,2013-05-26 17:54:00,
2013-05-26 13:59:00,68.5,35.9,30.17,North,360,0.0,0.0,30,0.00,,FEW250,0.00,VWS V14.01,2013-05-26 17:59:00,
2013-05-26 14:04:00,68.7,34.2,30.17,North,360,0.0,0.0,28,0.00,,FEW250,0.00,VWS V14.01,2013-05-26 18:04:00,
2013-05-26 14:14:00,68.9,34.4,30.16,North,360,0.0,0.0,28,0.00,,FEW250,0.00,VWS V14.01,2013-05-26 18:14:00,
2013-05-26 14:19:00,68.9,34.4,30.16,North,360,0.0,0.0,28,0.00,,FEW250,0.00,VWS V14.01,2013-05-26 18:19:00,
2013-05-26 14:24:00,69.0,32.5,30.15,North,360,0.0,0.0,26,0.00,,FEW250,0.00,VWS V14.01,2013-05-26 18:24:00,
2013-05-26 14:29:00,70.1,31.3,30.15,North,360,0.0,0.0,24,0.00,,FEW250,0.00,VWS V14.01,2013-05-26 18:29:00,
2013-05-26 14:39:00,70.1,31.3,30.16,North,360,0.0,0.0,24,0.00,,FEW250,0.00,VWS V14.01,2013-05-26 18:39:00,
2013-05-26 14:44:00,69.9,33.3,30.16,North,360,0.0,0.0,26,0.00,,FEW250,0.00,VWS V14.01,2013-05-26 18:44:00,
2013-05-26 14:49:00,69.9,30.0,30.16,North,360,0.0,0.0,23,0.00,,FEW250,0.00,VWS V14.01,2013-05-26 18:49:00,
2013-05-26 14:54:00,69.5,29.7,30.15,North,360,0.0,0.0,23,0.00,,FEW250,0.00,VWS V14.01,2013-05-26 18:54:00,
2013-05-26 15:04:00,69.6,30.9,30.16,North,360,0.0,0.0,24,0.00,,FEW250,0.00,VWS V14.01,2013-05-26 19:04:00,
2013-05-26 15:14:00,70.2,31.4,30.16,North,360,0.0,0.0,24,0.00,,FEW250,0.00,VWS V14.01,2013-05-26 19:14:00,
2013-05-26 15:19:00,70.0,31.2,30.16,North,360,0.0,0.0,24,0.00,,FEW250,0.00,VWS V14.01,2013-05-26 19:19:00,
2013-05-26 15:24:00,70.7,31.8,30.16,North,360,0.0,0.0,24,0.00,,FEW250,0.00,VWS V14.01,2013-05-26 19:24:00,
2013-05-26 15:29:00,70.7,30.7,30.16,North,360,0.0,0.0,23,0.00,,FEW250,0.00,VWS V14.01,2013-05-26 19:29:00,
2013-05-26 15:34:00,70.9,32.0,30.15,North,360,0.0,0.0,24,0.00,,FEW250,0.00,VWS V14.01,2013-05-26 19:34:00,
2013-05-26 15:39:00,70.7,32.9,30.15,North,360,0.0,0.0,25,0.00,,FEW250,0.00,VWS V14.01,2013-05-26 19:39:00,
2013-05-26 15:44:00,71.1,33.3,30.14,North,360,0.0,0.0,25,0.00,,FEW250,0.00,VWS V14.01,2013-05-26 19:44:00,
2013-05-26 15:49:00,71.5,31.4,30.15,North,360,0.0,0.0,23,0.00,,FEW250,0.00,VWS V14.01,2013-05-26 19:49:00,
2013-05-26 15:54:00,71.7,31.5,30.15,North,360,0.0,0.0,23,0.00,,FEW250,0.00,VWS V14.01,2013-05-26 19:54:00,
2013-05-26 16:07:00,71.6,32.6,30.15,North,360,0.0,0.0,24,0.00,,FEW250,0.00,VWS V14.01,2013-05-26 20:07:00,
2013-05-26 16:14:00,71.4,33.5,30.15,North,360,0.0,0.0,25,0.00,,FEW250,0.00,VWS V14.01,2013-05-26 20:14:00,
2013-05-26 16:19:00,71.2,33.3,30.14,North,360,0.0,0.0,25,0.00,,FEW250,0.00,VWS V14.01,2013-05-26 20:19:00,
2013-05-26 16:24:00,71.2,32.3,30.15,North,360,0.0,0.0,24,0.00,,FEW250,0.00,VWS V14.01,2013-05-26 20:24:00,
2013-05-26 16:29:00,71.5,31.4,30.14,North,360,0.0,0.0,23,0.00,,FEW250,0.00,VWS V14.01,2013-05-26 20:29:00,
2013-05-26 16:34:00,72.0,32.9,30.14,North,360,0.0,0.0,24,0.00,,FEW250,0.00,VWS V14.01,2013-05-26 20:34:00,
2013-05-26 16:39:00,72.7,32.4,30.14,North,360,0.0,0.0,23,0.00,,FEW250,0.00,VWS V14.01,2013-05-26 20:39:00,
2013-05-26 16:44:00,72.4,34.4,30.14,North,360,0.0,0.0,25,0.00,,FEW250,0.00,VWS V14.01,2013-05-26 20:44:00,
2013-05-26 16:54:00,71.9,31.7,30.14,North,360,0.0,0.0,23,0.00,,FEW250,0.00,VWS V14.01,2013-05-26 20:54:00,
2013-05-26 17:04:00,72.0,34.0,30.14,North,360,0.0,0.0,25,0.00,,FEW250,0.00,VWS V14.01,2013-05-26 21:04:00,
2013-05-26 17:14:00,71.9,33.9,30.14,North,360,0.0,0.0,25,0.00,,FEW250,0.00,VWS V14.01,2013-05-26 21:14:00,
2013-05-26 17:19:00,72.2,30.8,30.14,North,360,0.0,0.0,22,0.00,,FEW250,0.00,VWS V14.01,2013-05-26 21:19:00,
2013-05-26 17:24:00,72.1,31.9,30.14,North,360,0.0,0.0,23,0.00,,FEW250,0.00,VWS V14.01,2013-05-26 21:24:00,
2013-05-26 17:29:00,72.0,30.6,30.14,North,360,0.0,0.0,22,0.00,,FEW250,0.00,VWS V14.01,2013-05-26 21:29:00,
2013-05-26 17:34:00,72.1,31.9,30.14,North,360,0.0,0.0,23,0.00,,FEW250,0.00,VWS V14.01,2013-05-26 21:34:00,
2013-05-26 17:39:00,72.4,31.0,30.14,North,360,0.0,0.0,22,0.00,,FEW250,0.00,VWS V14.01,2013-05-26 21:39:00,
2013-05-26 17:44:00,72.5,29.8,30.14,North,360,0.0,0.0,20,0.00,,FEW250,0.00,VWS V14.01,2013-05-26 21:44:00,
2013-05-26 17:49:00,72.3,29.6,30.14,North,360,0.0,0.0,20,0.00,,FEW250,0.00,VWS V14.01,2013-05-26 21:49:00,
2013-05-26 17:54:00,72.2,30.8,30.14,North,360,0.0,0.0,22,0.00,,FEW250,0.00,VWS V14.01,2013-05-26 21:54:00,
2013-05-26 17:59:00,72.0,29.4,30.14,North,360,0.0,0.0,20,0.00,,FEW250,0.00,VWS V14.01,2013-05-26 21:59:00,
2013-05-26 18:04:00,72.0,31.8,30.14,North,360,0.0,0.0,23,0.00,,FEW250,0.00,VWS V14.01,2013-05-26 22:04:00,
2013-05-26 18:14:00,71.9,30.5,30.14,North,360,0.0,0.0,22,0.00,,FEW250,0.00,VWS V14.01,2013-05-26 22:14:00,
2013-05-26 18:19:00,72.0,30.6,30.14,North,360,0.0,0.0,22,0.00,,FEW250,0.00,VWS V14.01,2013-05-26 22:19:00,
2013-05-26 18:26:00,72.0,30.6,30.14,North,360,0.0,0.0,22,0.00,,FEW250,0.00,VWS V14.01,2013-05-26 22:26:00,
2013-05-26 18:34:00,72.1,31.9,30.14,North,360,0.0,0.0,23,0.00,,FEW250,0.00,VWS V14.01,2013-05-26 22:34:00,
2013-05-26 18:39:00,72.0,31.8,30.14,North,360,0.0,0.0,23,0.00,,FEW250,0.00,VWS V14.01,2013-05-26 22:39:00,
2013-05-26 18:44:00,71.8,30.5,30.15,North,360,0.0,0.0,22,0.00,,FEW250,0.00,VWS V14.01,2013-05-26 22:44:00,
2013-05-26 18:54:00,71.5,31.4,30.14,North,360,0.0,0.0,23,0.00,,FEW250,0.00,VWS V14.01,2013-05-26 22:54:00,
2013-05-26 18:59:00,71.8,31.6,30.14,North,360,0.0,0.0,23,0.00,,FEW250,0.00,VWS V14.01,2013-05-26 22:59:00,
2013-05-26 19:07:00,71.6,31.5,30.15,North,360,0.0,0.0,23,0.00,,FEW250,0.00,VWS V14.01,2013-05-26 23:07:00,
2013-05-26 19:14:00,71.4,31.3,30.15,North,360,0.0,0.0,23,0.00,,FEW250,0.00,VWS V14.01,2013-05-26 23:14:00,
2013-05-26 19:19:00,71.2,30.0,30.15,North,360,0.0,0.0,22,0.00,,FEW250,0.00,VWS V14.01,2013-05-26 23:19:00,
2013-05-26 19:24:00,71.0,32.1,30.15,North,360,0.0,0.0,24,0.00,,FEW250,0.00,VWS V14.01,2013-05-26 23:24:00,
2013-05-26 19:29:00,70.8,31.9,30.15,North,360,0.0,0.0,24,0.00,,FEW250,0.00,VWS V14.01,2013-05-26 23:29:00,
2013-05-26 19:34:00,70.7,30.7,30.16,North,360,0.0,0.0,23,0.00,,FEW250,0.00,VWS V14.01,2013-05-26 23:34:00,
2013-05-26 19:39:00,70.8,30.8,30.16,North,360,0.0,0.0,23,0.00,,FEW250,0.00,VWS V14.01,2013-05-26 23:39:00,
2013-05-26 19:44:00,70.5,31.7,30.16,North,360,0.0,0.0,24,0.00,,FEW250,0.00,VWS V14.01,2013-05-26 23:44:00,
2013-05-26 19:49:00,70.3,32.6,30.16,North,360,0.0,0.0,25,0.00,,FEW250,0.00,VWS V14.01,2013-05-26 23:49:00,
2013-05-26 19:54:00,70.2,32.5,30.16,North,360,0.0,0.0,25,0.00,,FEW250,0.00,VWS V14.01,2013-05-26 23:54:00,
2013-05-26 20:04:00,69.7,33.1,30.16,North,360,0.0,0.0,26,0.00,,SCT250,0.00,VWS V14.01,2013-05-27 00:04:00,
2013-05-26 20:14:00,69.1,33.6,30.16,North,360,0.0,0.0,27,0.00,,SCT250,0.00,VWS V14.01,2013-05-27 00:14:00,
2013-05-26 20:19:00,68.9,33.4,30.17,North,360,0.0,0.0,27,0.00,,SCT250,0.00,VWS V14.01,2013-05-27 00:19:00,
2013-05-26 20:24:00,68.8,35.3,30.17,North,360,0.0,0.0,29,0.00,,SCT250,0.00,VWS V14.01,2013-05-27 00:24:00,
2013-05-26 20:29:00,68.6,34.2,30.17,North,360,0.0,0.0,28,0.00,,SCT250,0.00,VWS V14.01,2013-05-27 00:29:00,
2013-05-26 20:34:00,68.6,34.2,30.17,North,360,0.0,0.0,28,0.00,,SCT250,0.00,VWS V14.01,2013-05-27 00:34:00,
2013-05-26 20:44:00,68.3,33.9,30.17,North,360,0.0,0.0,28,0.00,,SCT250,0.00,VWS V14.01,2013-05-27 00:44:00,
2013-05-26 20:49:00,68.2,33.8,30.18,North,360,0.0,0.0,28,0.00,,SCT250,0.00,VWS V14.01,2013-05-27 00:49:00,
2013-05-26 20:54:00,68.0,34.6,30.18,North,360,0.0,0.0,29,0.00,,SCT250,0.00,VWS V14.01,2013-05-27 00:54:00,
2013-05-26 20:59:00,67.8,35.3,30.18,North,360,0.0,0.0,30,0.00,,FEW250,0.00,VWS V14.01,2013-05-27 00:59:00,
2013-05-26 21:04:00,67.5,35.9,30.18,North,360,0.0,0.0,31,0.00,,FEW250,0.00,VWS V14.01,2013-05-27 01:04:00,
2013-05-26 21:14:00,66.9,35.4,30.19,North,360,0.0,0.0,31,0.00,,FEW250,0.00,VWS V14.01,2013-05-27 01:14:00,
2013-05-26 21:19:00,66.6,36.0,30.19,North,360,0.0,0.0,32,0.00,,FEW250,0.00,VWS V14.01,2013-05-27 01:19:00,
2013-05-26 21:26:00,66.2,36.4,30.19,North,360,0.0,0.0,33,0.00,,FEW250,0.00,VWS V14.01,2013-05-27 01:26:00,
2013-05-26 21:34:00,65.7,37.6,30.20,North,360,0.0,0.0,35,0.00,,FEW250,0.00,VWS V14.01,2013-05-27 01:34:00,
2013-05-26 21:39:00,65.2,37.1,30.20,North,360,0.0,0.0,35,0.00,,FEW250,0.00,VWS V14.01,2013-05-27 01:39:00,
2013-05-26 21:44:00,65.0,38.4,30.20,North,360,0.0,0.0,37,0.00,,FEW250,0.00,VWS V14.01,2013-05-27 01:44:00,
2013-05-26 21:49:00,64.8,36.8,30.20,North,360,0.0,0.0,35,0.00,,FEW250,0.00,VWS V14.01,2013-05-27 01:49:00,
2013-05-26 21:54:00,64.8,36.8,30.20,North,360,0.0,0.0,35,0.00,,FEW250,0.00,VWS V14.01,2013-05-27 01:54:00,
2013-05-26 21:59:00,64.4,37.9,30.20,North,360,0.0,0.0,37,0.00,,FEW250,0.00,VWS V14.01,2013-05-27 01:59:00,
2013-05-26 22:04:00,64.2,37.0,30.21,North,360,0.0,0.0,36,0.00,,FEW250,0.00,VWS V14.01,2013-05-27 02:04:00,
2013-05-26 22:14:00,64.2,37.7,30.21,North,360,0.0,0.0,37,0.00,,FEW250,0.00,VWS V14.01,2013-05-27 02:14:00,
2013-05-26 22:19:00,64.1,37.6,30.21,North,360,0.0,0.0,37,0.00,,FEW250,0.00,VWS V14.01,2013-05-27 02:19:00,
2013-05-26 22:24:00,63.8,38.1,30.21,North,360,0.0,0.0,39,0.00,,FEW250,0.00,VWS V14.01,2013-05-27 02:24:00,
2013-05-26 22:29:00,63.5,37.8,30.22,North,360,0.0,0.0,39,0.00,,FEW250,0.00,VWS V14.01,2013-05-27 02:29:00,
2013-05-26 22:34:00,63.3,38.3,30.22,North,360,0.0,0.0,40,0.00,,FEW250,0.00,VWS V14.01,2013-05-27 02:34:00,
2013-05-26 22:39:00,63.2,38.2,30.22,North,360,0.0,0.0,40,0.00,,FEW250,0.00,VWS V14.01,2013-05-27 02:39:00,
2013-05-26 22:44:00,63.1,37.5,30.22,North,360,0.0,0.0,39,0.00,,FEW250,0.00,VWS V14.01,2013-05-27 02:44:00,
2013-05-26 22:54:00,62.8,37.9,30.22,North,360,0.0,0.0,40,0.00,,FEW250,0.00,VWS V14.01,2013-05-27 02:54:00,
2013-05-26 22:59:00,62.8,37.2,30.22,North,360,0.0,0.0,39,0.00,,CLR,0.00,VWS V14.01,2013-05-27 02:59:00,
2013-05-26 23:04:00,62.6,38.4,30.22,North,360,0.0,0.0,41,0.00,,CLR,0.00,VWS V14.01,2013-05-27 03:04:00,
2013-05-26 23:14:00,61.7,38.2,30.23,North,360,0.0,0.0,42,0.00,,CLR,0.00,VWS V14.01,2013-05-27 03:14:00,
2013-05-26 23:19:00,61.6,38.1,30.23,North,360,0.0,0.0,42,0.00,,CLR,0.00,VWS V14.01,2013-05-27 03:19:00,
2013-05-26 23:24:00,61.5,38.7,30.22,North,360,0.0,0.0,43,0.00,,CLR,0.00,VWS V14.01,2013-05-27 03:24:00,
2013-05-26 23:29:00,61.2,39.0,30.23,North,360,0.0,0.0,44,0.00,,CLR,0.00,VWS V14.01,2013-05-27 03:29:00,
2013-05-26 23:34:00,61.0,39.5,30.23,North,360,0.0,0.0,45,0.00,,CLR,0.00,VWS V14.01,2013-05-27 03:34:00,
2013-05-26 23:39:00,60.9,38.8,30.23,North,360,0.0,0.0,44,0.00,,CLR,0.00,VWS V14.01,2013-05-27 03:39:00,
2013-05-26 23:44:00,60.8,38.7,30.23,North,360,0.0,0.0,44,0.00,,CLR,0.00,VWS V14.01,2013-05-27 03:44:00,
2013-05-26 23:49:00,60.7,38.6,30.23,North,360,0.0,0.0,44,0.00,,CLR,0.00,VWS V14.01,2013-05-27 03:49:00,
2013-05-26 23:54:00,60.7,38.6,30.23,North,360,0.0,0.0,44,0.00,,CLR,0.00,VWS V14.01,2013-05-27 03:54:00,
2013-05-26 23:59:00,60.7,39.2,30.23,North,360,0.0,0.0,45,0.00,,FEW250,0.00,VWS V14.01,2013-05-27 03:59:00,